Location: *
(46.1333°S, 161.2167°W)
Time: 10:05:43
(UTC+00:00)

Cosmos 2298 Rocket - Pass Details

Date: 02 November 2020
Orbit: 777 x 783 km, 74.0° (Epoch: 25 November)

Event Time Altitude Azimuth Distance (km) Brightness Sun altitude
Exits shadow 11:08:33 44° 249° (WSW) 1,095 4.8 -28.2°
Maximum altitude 11:08:47 44° 242° (WSW) 1,091 4.8 -28.2°
Drops below altitude 10° 11:13:57 10° 169° (S) 2,377 7.5 -28.0°
Sets 11:16:29 0° 162° (SSE) 3,313 8.6 -27.9°
